Year,Month,Day,Hour,Minute,Value (Times are PST for windgust in km/hr)
2020,03,15,00,00,25.70
2020,03,15,00,01,11.30
2020,03,15,00,02,25.70
2020,03,15,00,03,30.60
2020,03,15,00,04,20.90
2020,03,15,00,05,19.30
2020,03,15,00,06,1.60
2020,03,15,00,07,30.60
2020,03,15,00,08,41.80
2020,03,15,00,09,40.20
2020,03,15,00,10,17.70
2020,03,15,00,11,33.80
2020,03,15,00,12,27.40
2020,03,15,00,13,4.80
2020,03,15,00,14,38.60
2020,03,15,00,15,25.70
2020,03,15,00,16,27.40
2020,03,15,00,17,35.40
2020,03,15,00,18,29.00
2020,03,15,00,19,6.40
2020,03,15,00,20,35.40
2020,03,15,00,21,30.60
2020,03,15,00,22,32.20
2020,03,15,00,23,38.60
2020,03,15,00,24,33.80
2020,03,15,00,25,22.50
2020,03,15,00,26,37.00
2020,03,15,00,27,11.30
2020,03,15,00,28,20.90
2020,03,15,00,29,37.00
2020,03,15,00,30,20.90
2020,03,15,00,31,38.60
2020,03,15,00,32,35.40
2020,03,15,00,33,40.20
2020,03,15,00,34,25.70
2020,03,15,00,35,29.00
2020,03,15,00,36,9.60
2020,03,15,00,37,41.80
2020,03,15,00,38,40.20
2020,03,15,00,39,30.60
2020,03,15,00,40,30.60
2020,03,15,00,41,24.20
2020,03,15,00,42,14.50
2020,03,15,00,43,25.70
2020,03,15,00,44,27.40
2020,03,15,00,45,3.20
2020,03,15,00,46,24.20
2020,03,15,00,47,40.20
2020,03,15,00,48,27.40
2020,03,15,00,49,35.40
2020,03,15,00,50,35.40
2020,03,15,00,51,40.20
2020,03,15,00,52,24.20
2020,03,15,00,53,37.00
2020,03,15,00,54,32.20
2020,03,15,00,55,37.00
2020,03,15,00,56,45.10
2020,03,15,00,57,32.20
2020,03,15,00,58,37.00
2020,03,15,00,59,22.50
2020,03,15,01,00,25.70
2020,03,15,01,01,30.60
2020,03,15,01,02,32.20
2020,03,15,01,03,33.80
2020,03,15,01,04,27.40
2020,03,15,01,05,30.60
2020,03,15,01,06,35.40
2020,03,15,01,07,30.60
2020,03,15,01,08,25.70
2020,03,15,01,09,17.70
2020,03,15,01,10,14.50
2020,03,15,01,11,19.30
2020,03,15,01,12,35.40
2020,03,15,01,13,27.40
2020,03,15,01,14,33.80
2020,03,15,01,15,9.60
2020,03,15,01,16,22.50
2020,03,15,01,17,32.20
2020,03,15,01,18,11.30
2020,03,15,01,19,25.70
2020,03,15,01,20,25.70
2020,03,15,01,21,1.60
2020,03,15,01,22,25.70
2020,03,15,01,23,33.80
2020,03,15,01,24,27.40
2020,03,15,01,25,4.80
2020,03,15,01,26,24.20
2020,03,15,01,27,29.00
2020,03,15,01,28,11.30
2020,03,15,01,29,30.60
2020,03,15,01,30,8.10
2020,03,15,01,31,19.30
2020,03,15,01,32,19.30
2020,03,15,01,33,33.80
2020,03,15,01,34,25.70
2020,03,15,01,35,41.80
2020,03,15,01,36,35.40
2020,03,15,01,37,22.50
2020,03,15,01,38,20.90
2020,03,15,01,39,24.20
2020,03,15,01,40,25.70
2020,03,15,01,41,25.70
2020,03,15,01,42,27.40
2020,03,15,01,43,27.40
2020,03,15,01,44,35.40
2020,03,15,01,45,25.70
2020,03,15,01,46,27.40
2020,03,15,01,47,37.00
2020,03,15,01,48,27.40
2020,03,15,01,49,29.00
2020,03,15,01,50,19.30
2020,03,15,01,51,20.90
2020,03,15,01,52,27.40
2020,03,15,01,53,25.70
2020,03,15,01,54,27.40
2020,03,15,01,55,24.20
2020,03,15,01,56,8.10
2020,03,15,01,57,11.30
2020,03,15,01,58,33.80
2020,03,15,01,59,19.30
2020,03,15,02,00,24.20
2020,03,15,02,01,25.70
2020,03,15,02,02,30.60
2020,03,15,02,03,35.40
2020,03,15,02,04,27.40
2020,03,15,02,05,25.70
2020,03,15,02,06,25.70
2020,03,15,02,07,27.40
2020,03,15,02,08,20.90
2020,03,15,02,09,35.40
2020,03,15,02,10,6.40
2020,03,15,02,11,24.20
2020,03,15,02,12,17.70
2020,03,15,02,13,4.80
2020,03,15,02,14,1.60
2020,03,15,02,15,16.10
2020,03,15,02,16,17.70
2020,03,15,02,17,25.70
2020,03,15,02,18,22.50
2020,03,15,02,19,29.00
2020,03,15,02,20,29.00
2020,03,15,02,21,33.80
2020,03,15,02,22,33.80
2020,03,15,02,23,33.80
2020,03,15,02,24,37.00
2020,03,15,02,25,35.40
2020,03,15,02,26,29.00
2020,03,15,02,27,16.10
2020,03,15,02,28,11.30
2020,03,15,02,29,29.00
2020,03,15,02,30,29.00
2020,03,15,02,31,22.50
2020,03,15,02,32,33.80
2020,03,15,02,33,14.50
2020,03,15,02,34,19.30
2020,03,15,02,35,16.10
2020,03,15,02,36,17.70
2020,03,15,02,37,1.60
2020,03,15,02,38,43.50
2020,03,15,02,39,25.70
2020,03,15,02,40,30.60
2020,03,15,02,41,27.40
2020,03,15,02,42,35.40
2020,03,15,02,43,22.50
2020,03,15,02,44,22.50
2020,03,15,02,45,17.70
2020,03,15,02,46,12.90
2020,03,15,02,47,20.90
2020,03,15,02,48,27.40
2020,03,15,02,49,37.00
2020,03,15,02,50,32.20
2020,03,15,02,51,29.00
2020,03,15,02,52,25.70
2020,03,15,02,53,25.70
2020,03,15,02,54,27.40
2020,03,15,02,55,30.60
2020,03,15,02,56,24.20
2020,03,15,02,57,37.00
2020,03,15,02,58,22.50
2020,03,15,02,59,38.60
2020,03,15,03,00,27.40
2020,03,15,03,01,25.70
2020,03,15,03,02,35.40
2020,03,15,03,03,29.00
2020,03,15,03,04,14.50
2020,03,15,03,05,29.00
2020,03,15,03,06,38.60
2020,03,15,03,07,27.40
2020,03,15,03,08,22.50
2020,03,15,03,09,17.70
2020,03,15,03,10,24.20
2020,03,15,03,11,32.20
2020,03,15,03,12,37.00
2020,03,15,03,13,27.40
2020,03,15,03,14,20.90
2020,03,15,03,15,38.60
2020,03,15,03,16,33.80
2020,03,15,03,17,30.60
2020,03,15,03,18,27.40
2020,03,15,03,19,30.60
2020,03,15,03,20,25.70
2020,03,15,03,21,29.00
2020,03,15,03,22,27.40
2020,03,15,03,23,27.40
2020,03,15,03,24,33.80
2020,03,15,03,25,33.80
2020,03,15,03,26,14.50
2020,03,15,03,27,16.10
2020,03,15,03,28,20.90
2020,03,15,03,29,29.00
2020,03,15,03,30,19.30
2020,03,15,03,31,14.50
2020,03,15,03,32,20.90
2020,03,15,03,33,19.30
2020,03,15,03,34,19.30
2020,03,15,03,35,25.70
2020,03,15,03,36,8.10
2020,03,15,03,37,24.20
2020,03,15,03,38,30.60
2020,03,15,03,39,30.60
2020,03,15,03,40,27.40
2020,03,15,03,41,24.20
2020,03,15,03,42,30.60
2020,03,15,03,43,32.20
2020,03,15,03,44,22.50
2020,03,15,03,45,6.40
2020,03,15,03,46,32.20
2020,03,15,03,47,19.30
2020,03,15,03,48,19.30
2020,03,15,03,49,38.60
2020,03,15,03,50,33.80
2020,03,15,03,51,24.20
2020,03,15,03,52,4.80
2020,03,15,03,53,19.30
2020,03,15,03,54,20.90
2020,03,15,03,55,30.60
2020,03,15,03,56,30.60
2020,03,15,03,57,14.50
2020,03,15,03,58,17.70
2020,03,15,03,59,19.30
2020,03,15,04,00,19.30
2020,03,15,04,01,3.20
2020,03,15,04,02,27.40
2020,03,15,04,03,40.20
2020,03,15,04,04,35.40
2020,03,15,04,05,20.90
2020,03,15,04,06,22.50
2020,03,15,04,07,17.70
2020,03,15,04,08,25.70
2020,03,15,04,09,24.20
2020,03,15,04,10,37.00
2020,03,15,04,11,41.80
2020,03,15,04,12,38.60
2020,03,15,04,13,17.70
2020,03,15,04,14,32.20
2020,03,15,04,15,33.80
2020,03,15,04,16,25.70
2020,03,15,04,17,25.70
2020,03,15,04,18,30.60
2020,03,15,04,19,24.20
2020,03,15,04,20,37.00
2020,03,15,04,21,40.20
2020,03,15,04,22,29.00
2020,03,15,04,23,16.10
2020,03,15,04,24,16.10
2020,03,15,04,25,32.20
2020,03,15,04,26,30.60
2020,03,15,04,27,41.80
2020,03,15,04,28,24.20
2020,03,15,04,29,17.70
2020,03,15,04,30,40.20
2020,03,15,04,31,30.60
2020,03,15,04,32,33.80
2020,03,15,04,33,25.70
2020,03,15,04,34,17.70
2020,03,15,04,35,25.70
2020,03,15,04,36,11.30
2020,03,15,04,37,32.20
2020,03,15,04,38,30.60
2020,03,15,04,39,25.70
2020,03,15,04,40,41.80
2020,03,15,04,41,25.70
2020,03,15,04,42,29.00
2020,03,15,04,43,33.80
2020,03,15,04,44,37.00
2020,03,15,04,45,16.10
2020,03,15,04,46,9.60
2020,03,15,04,47,38.60
2020,03,15,04,48,32.20
2020,03,15,04,49,20.90
2020,03,15,04,50,27.40
2020,03,15,04,51,40.20
2020,03,15,04,52,27.40
2020,03,15,04,53,38.60
2020,03,15,04,54,29.00
2020,03,15,04,55,19.30
2020,03,15,04,56,32.20
2020,03,15,04,57,22.50
2020,03,15,04,58,16.10
2020,03,15,04,59,8.10
2020,03,15,05,00,27.40
2020,03,15,05,01,30.60
2020,03,15,05,02,35.40
2020,03,15,05,03,27.40
2020,03,15,05,04,29.00
2020,03,15,05,05,38.60
2020,03,15,05,06,24.20
2020,03,15,05,07,22.50
2020,03,15,05,08,38.60
2020,03,15,05,09,37.00
2020,03,15,05,10,29.00
2020,03,15,05,11,37.00
2020,03,15,05,12,25.70
2020,03,15,05,13,30.60
2020,03,15,05,14,38.60
2020,03,15,05,15,35.40
2020,03,15,05,16,27.40
2020,03,15,05,17,14.50
2020,03,15,05,18,25.70
2020,03,15,05,19,37.00
2020,03,15,05,20,24.20
2020,03,15,05,21,20.90
2020,03,15,05,22,37.00
2020,03,15,05,23,33.80
2020,03,15,05,24,37.00
2020,03,15,05,25,30.60
2020,03,15,05,26,41.80
2020,03,15,05,27,41.80
2020,03,15,05,28,25.70
2020,03,15,05,29,30.60
2020,03,15,05,30,38.60
2020,03,15,05,31,35.40
2020,03,15,05,32,22.50
2020,03,15,05,33,22.50
2020,03,15,05,34,29.00
2020,03,15,05,35,30.60
2020,03,15,05,36,17.70
2020,03,15,05,37,30.60
2020,03,15,05,38,25.70
2020,03,15,05,39,30.60
2020,03,15,05,40,30.60
2020,03,15,05,41,40.20
2020,03,15,05,42,29.00
2020,03,15,05,43,24.20
2020,03,15,05,44,27.40
2020,03,15,05,45,27.40
2020,03,15,05,46,29.00
2020,03,15,05,47,27.40
2020,03,15,05,48,29.00
2020,03,15,05,49,22.50
2020,03,15,05,50,22.50
2020,03,15,05,51,20.90
2020,03,15,05,52,30.60
2020,03,15,05,53,25.70
2020,03,15,05,54,24.20
2020,03,15,05,55,29.00
2020,03,15,05,56,37.00
2020,03,15,05,57,37.00
2020,03,15,05,58,30.60
2020,03,15,05,59,29.00
2020,03,15,06,00,33.80
2020,03,15,06,01,25.70
2020,03,15,06,02,12.90
2020,03,15,06,03,20.90
2020,03,15,06,04,20.90
2020,03,15,06,05,25.70
2020,03,15,06,06,32.20
2020,03,15,06,07,37.00
2020,03,15,06,08,30.60
2020,03,15,06,09,41.80
2020,03,15,06,10,30.60
2020,03,15,06,11,29.00
2020,03,15,06,12,37.00
2020,03,15,06,13,25.70
2020,03,15,06,14,27.40
2020,03,15,06,15,27.40
2020,03,15,06,16,30.60
2020,03,15,06,17,20.90
2020,03,15,06,18,22.50
2020,03,15,06,19,27.40
2020,03,15,06,20,32.20
2020,03,15,06,21,24.20
2020,03,15,06,22,30.60
2020,03,15,06,23,33.80
2020,03,15,06,24,27.40
2020,03,15,06,25,30.60
2020,03,15,06,26,30.60
2020,03,15,06,27,30.60
2020,03,15,06,28,25.70
2020,03,15,06,29,30.60
2020,03,15,06,30,33.80
2020,03,15,06,31,24.20
2020,03,15,06,32,14.50
2020,03,15,06,33,35.40
2020,03,15,06,34,24.20
2020,03,15,06,35,33.80
2020,03,15,06,36,35.40
2020,03,15,06,37,19.30
2020,03,15,06,38,24.20
2020,03,15,06,39,27.40
2020,03,15,06,40,24.20
2020,03,15,06,41,29.00
2020,03,15,06,42,33.80
2020,03,15,06,43,40.20
2020,03,15,06,44,35.40
2020,03,15,06,45,35.40
2020,03,15,06,46,29.00
2020,03,15,06,47,29.00
2020,03,15,06,48,22.50
2020,03,15,06,49,29.00
2020,03,15,06,50,32.20
2020,03,15,06,51,24.20
2020,03,15,06,52,33.80
2020,03,15,06,53,27.40
2020,03,15,06,54,27.40
2020,03,15,06,55,46.70
2020,03,15,06,56,37.00
2020,03,15,06,57,38.60
2020,03,15,06,58,33.80
2020,03,15,06,59,20.90
2020,03,15,07,00,22.50
2020,03,15,07,01,20.90
2020,03,15,07,02,22.50
2020,03,15,07,03,19.30
2020,03,15,07,04,24.20
2020,03,15,07,05,22.50
2020,03,15,07,06,27.40
2020,03,15,07,07,33.80
2020,03,15,07,08,25.70
2020,03,15,07,09,27.40
2020,03,15,07,10,40.20
2020,03,15,07,11,35.40
2020,03,15,07,12,35.40
2020,03,15,07,13,27.40
2020,03,15,07,14,35.40
2020,03,15,07,15,22.50
2020,03,15,07,16,22.50
2020,03,15,07,17,40.20
2020,03,15,07,18,16.10
2020,03,15,07,19,6.40
2020,03,15,07,20,19.30
2020,03,15,07,21,29.00
2020,03,15,07,22,33.80
2020,03,15,07,23,25.70
2020,03,15,07,24,22.50
2020,03,15,07,25,19.30
2020,03,15,07,26,24.20
2020,03,15,07,27,27.40
2020,03,15,07,28,27.40
2020,03,15,07,29,30.60
2020,03,15,07,30,4.80
2020,03,15,07,31,3.20
2020,03,15,07,32,17.70
2020,03,15,07,33,27.40
2020,03,15,07,34,8.10
2020,03,15,07,35,25.70
2020,03,15,07,36,29.00
2020,03,15,07,37,19.30
2020,03,15,07,38,19.30
2020,03,15,07,39,30.60
2020,03,15,07,40,27.40
2020,03,15,07,41,27.40
2020,03,15,07,42,17.70
2020,03,15,07,43,33.80
2020,03,15,07,44,17.70
2020,03,15,07,45,27.40
2020,03,15,07,46,29.00
2020,03,15,07,47,32.20
2020,03,15,07,48,30.60
2020,03,15,07,49,6.40
2020,03,15,07,50,6.40
2020,03,15,07,51,25.70
2020,03,15,07,52,20.90
2020,03,15,07,53,27.40
2020,03,15,07,54,25.70
2020,03,15,07,55,17.70
2020,03,15,07,56,27.40
2020,03,15,07,57,9.60
2020,03,15,07,58,1.60
2020,03,15,07,59,25.70
2020,03,15,08,00,24.20
2020,03,15,08,01,30.60
2020,03,15,08,02,19.30
2020,03,15,08,03,19.30
2020,03,15,08,04,3.20
2020,03,15,08,05,14.50
2020,03,15,08,06,27.40
2020,03,15,08,07,1.60
2020,03,15,08,08,32.20
2020,03,15,08,09,16.10
2020,03,15,08,10,25.70
2020,03,15,08,11,19.30
2020,03,15,08,12,20.90
2020,03,15,08,13,17.70
2020,03,15,08,14,9.60
2020,03,15,08,15,16.10
2020,03,15,08,16,12.90
2020,03,15,08,17,14.50
2020,03,15,08,18,35.40
2020,03,15,08,19,24.20
2020,03,15,08,20,22.50
2020,03,15,08,21,9.60
2020,03,15,08,22,19.30
2020,03,15,08,23,19.30
2020,03,15,08,24,25.70
2020,03,15,08,25,27.40
2020,03,15,08,26,19.30
2020,03,15,08,27,33.80
2020,03,15,08,28,22.50
2020,03,15,08,29,19.30
2020,03,15,08,30,9.60
2020,03,15,08,31,8.10
2020,03,15,08,32,30.60
2020,03,15,08,33,30.60
2020,03,15,08,34,19.30
2020,03,15,08,35,1.60
2020,03,15,08,36,4.80
2020,03,15,08,37,6.40
2020,03,15,08,38,32.20
2020,03,15,08,39,9.60
2020,03,15,08,40,22.50
2020,03,15,08,41,14.50
2020,03,15,08,42,8.10
2020,03,15,08,43,19.30
2020,03,15,08,44,17.70
2020,03,15,08,45,24.20
2020,03,15,08,46,16.10
2020,03,15,08,48,1.60
2020,03,15,08,49,14.50
2020,03,15,08,50,17.70
2020,03,15,08,51,6.40
2020,03,15,08,52,14.50
2020,03,15,08,53,24.20
2020,03,15,08,54,9.60
2020,03,15,08,55,8.10
2020,03,15,08,56,1.60
2020,03,15,08,57,1.60
2020,03,15,08,58,4.80
2020,03,15,08,59,29.00
2020,03,15,09,00,16.10
2020,03,15,09,01,9.60
2020,03,15,09,02,12.90
2020,03,15,09,03,22.50
2020,03,15,09,04,14.50
2020,03,15,09,05,27.40
2020,03,15,09,06,8.10
2020,03,15,09,07,20.90
2020,03,15,09,08,25.70
2020,03,15,09,09,43.50
2020,03,15,09,10,20.90
2020,03,15,09,11,38.60
2020,03,15,09,12,27.40
2020,03,15,09,13,35.40
2020,03,15,09,14,27.40
2020,03,15,09,15,27.40
2020,03,15,09,16,24.20
2020,03,15,09,17,25.70
2020,03,15,09,18,27.40
2020,03,15,09,19,40.20
2020,03,15,09,20,32.20
2020,03,15,09,21,33.80
2020,03,15,09,22,35.40
2020,03,15,09,23,24.20
2020,03,15,09,24,27.40
2020,03,15,09,25,19.30
2020,03,15,09,26,22.50
2020,03,15,09,27,25.70
2020,03,15,09,28,20.90
2020,03,15,09,29,24.20
2020,03,15,09,30,29.00
2020,03,15,09,31,19.30
2020,03,15,09,32,20.90
2020,03,15,09,33,4.80
2020,03,15,09,34,29.00
2020,03,15,09,35,30.60
2020,03,15,09,36,40.20
2020,03,15,09,37,25.70
2020,03,15,09,38,19.30
2020,03,15,09,39,25.70
2020,03,15,09,40,30.60
2020,03,15,09,41,25.70
2020,03,15,09,42,20.90
2020,03,15,09,43,32.20
2020,03,15,09,44,22.50
2020,03,15,09,45,17.70
2020,03,15,09,46,27.40
2020,03,15,09,47,20.90
2020,03,15,09,48,17.70
2020,03,15,09,49,9.60
2020,03,15,09,50,24.20
2020,03,15,09,51,25.70
2020,03,15,09,52,27.40
2020,03,15,09,53,32.20
2020,03,15,09,54,20.90
2020,03,15,09,55,16.10
2020,03,15,09,56,4.80
2020,03,15,09,57,14.50
2020,03,15,09,58,1.60
2020,03,15,09,59,20.90
2020,03,15,10,00,29.00
2020,03,15,10,01,16.10
2020,03,15,10,02,20.90
2020,03,15,10,03,19.30
2020,03,15,10,04,9.60
2020,03,15,10,05,22.50
2020,03,15,10,06,25.70
2020,03,15,10,07,17.70
2020,03,15,10,08,16.10
2020,03,15,10,09,25.70
2020,03,15,10,10,22.50
2020,03,15,10,11,22.50
2020,03,15,10,12,22.50
2020,03,15,10,13,4.80
2020,03,15,10,14,3.20
2020,03,15,10,15,8.10
2020,03,15,10,16,20.90
2020,03,15,10,17,25.70
2020,03,15,10,18,8.10
2020,03,15,10,19,25.70
2020,03,15,10,20,19.30
2020,03,15,10,21,22.50
2020,03,15,10,22,3.20
2020,03,15,10,23,24.20
2020,03,15,10,24,17.70
2020,03,15,10,25,22.50
2020,03,15,10,26,19.30
2020,03,15,10,27,19.30
2020,03,15,10,28,25.70
2020,03,15,10,29,6.40
2020,03,15,10,30,3.20
2020,03,15,10,31,9.60
2020,03,15,10,32,9.60
2020,03,15,10,33,12.90
2020,03,15,10,34,6.40
2020,03,15,10,35,4.80
2020,03,15,10,36,11.30
2020,03,15,10,37,4.80
2020,03,15,10,38,9.60
2020,03,15,10,39,11.30
2020,03,15,10,40,22.50
2020,03,15,10,41,6.40
2020,03,15,10,42,24.20
2020,03,15,10,43,14.50
2020,03,15,10,44,19.30
2020,03,15,10,45,20.90
2020,03,15,10,46,22.50
2020,03,15,10,47,19.30
2020,03,15,10,48,1.60
2020,03,15,10,49,22.50
2020,03,15,10,50,19.30
2020,03,15,10,51,4.80
2020,03,15,10,52,29.00
2020,03,15,10,53,27.40
2020,03,15,10,54,17.70
2020,03,15,10,55,4.80
2020,03,15,10,56,8.10
2020,03,15,10,57,17.70
2020,03,15,10,58,12.90
2020,03,15,10,59,12.90
2020,03,15,11,00,6.40
2020,03,15,11,01,11.30
2020,03,15,11,02,4.80
2020,03,15,11,03,14.50
2020,03,15,11,04,22.50
2020,03,15,11,05,22.50
2020,03,15,11,06,4.80
2020,03,15,11,07,9.60
2020,03,15,11,08,3.20
2020,03,15,11,09,8.10
2020,03,15,11,10,17.70
2020,03,15,11,11,20.90
2020,03,15,11,12,17.70
2020,03,15,11,13,24.20
2020,03,15,11,14,16.10
2020,03,15,11,16,1.60
2020,03,15,11,19,17.70
2020,03,15,11,20,11.30
2020,03,15,11,21,11.30
2020,03,15,11,22,1.60
2020,03,15,11,23,25.70
2020,03,15,11,24,17.70
2020,03,15,11,25,3.20
2020,03,15,11,26,24.20
2020,03,15,11,27,25.70
2020,03,15,11,28,27.40
2020,03,15,11,29,6.40
2020,03,15,11,30,14.50
2020,03,15,11,31,20.90
2020,03,15,11,32,4.80
2020,03,15,11,33,20.90
2020,03,15,11,35,1.60
2020,03,15,11,36,17.70
2020,03,15,11,37,6.40
2020,03,15,11,38,1.60
2020,03,15,11,39,3.20
2020,03,15,11,40,3.20
2020,03,15,11,41,3.20
2020,03,15,11,42,3.20
2020,03,15,11,43,1.60
2020,03,15,11,44,3.20
2020,03,15,11,45,12.90
2020,03,15,11,46,12.90
2020,03,15,11,47,1.60
2020,03,15,11,48,16.10
2020,03,15,11,49,6.40
2020,03,15,11,52,1.60
2020,03,15,11,53,11.30
2020,03,15,11,54,9.60
2020,03,15,11,56,1.60
2020,03,15,11,59,1.60
2020,03,15,12,00,1.60
2020,03,15,12,01,9.60
2020,03,15,12,03,4.80
2020,03,15,12,04,4.80
2020,03,15,12,05,1.60
2020,03,15,12,07,22.50
2020,03,15,12,08,14.50
2020,03,15,12,09,1.60
2020,03,15,12,10,6.40
2020,03,15,12,11,17.70
2020,03,15,12,12,4.80
2020,03,15,12,14,19.30
2020,03,15,12,15,6.40
2020,03,15,12,16,14.50
2020,03,15,12,17,3.20
2020,03,15,12,18,8.10
2020,03,15,12,19,3.20
2020,03,15,12,20,1.60
2020,03,15,12,21,11.30
2020,03,15,12,22,12.90
2020,03,15,12,26,3.20
2020,03,15,12,28,14.50
2020,03,15,12,29,3.20
2020,03,15,12,31,4.80
2020,03,15,12,32,1.60
2020,03,15,12,33,3.20
2020,03,15,12,34,17.70
2020,03,15,12,35,12.90
2020,03,15,12,36,6.40
2020,03,15,12,37,3.20
2020,03,15,12,38,11.30
2020,03,15,12,39,9.60
2020,03,15,12,40,16.10
2020,03,15,12,41,14.50
2020,03,15,12,46,8.10
2020,03,15,12,47,24.20
2020,03,15,12,48,19.30
2020,03,15,12,49,4.80
2020,03,15,12,50,12.90
2020,03,15,12,53,3.20
2020,03,15,12,55,8.10
2020,03,15,12,56,9.60
2020,03,15,12,57,1.60
2020,03,15,12,58,6.40
2020,03,15,12,59,1.60
2020,03,15,13,00,3.20
2020,03,15,13,01,4.80
2020,03,15,13,02,4.80
2020,03,15,13,03,9.60
2020,03,15,13,04,1.60
2020,03,15,13,05,9.60
2020,03,15,13,08,6.40
2020,03,15,13,09,8.10
2020,03,15,13,10,1.60
2020,03,15,13,11,4.80
2020,03,15,13,12,3.20
2020,03,15,13,13,1.60
2020,03,15,13,14,1.60
2020,03,15,13,15,20.90
2020,03,15,13,16,1.60
2020,03,15,13,18,3.20
2020,03,15,13,19,19.30
2020,03,15,13,20,9.60
2020,03,15,13,25,20.90
2020,03,15,13,28,1.60
2020,03,15,13,29,6.40
2020,03,15,13,30,1.60
2020,03,15,13,33,14.50
2020,03,15,13,34,8.10
2020,03,15,13,35,8.10
2020,03,15,13,36,9.60
2020,03,15,13,41,1.60
2020,03,15,13,42,1.60
2020,03,15,13,43,17.70
2020,03,15,13,44,3.20
2020,03,15,13,45,1.60
2020,03,15,13,47,1.60
2020,03,15,13,51,1.60
2020,03,15,13,52,6.40
2020,03,15,13,54,11.30
2020,03,15,13,55,14.50
2020,03,15,13,56,3.20
2020,03,15,13,57,11.30
2020,03,15,13,58,17.70
2020,03,15,14,06,1.60
2020,03,15,14,08,1.60
2020,03,15,14,09,1.60
2020,03,15,14,11,3.20
2020,03,15,14,12,1.60
2020,03,15,14,13,1.60
2020,03,15,14,14,4.80
2020,03,15,14,20,1.60
2020,03,15,14,21,1.60
2020,03,15,14,22,6.40
2020,03,15,14,23,1.60
2020,03,15,14,24,1.60
2020,03,15,14,25,1.60
2020,03,15,14,26,3.20
2020,03,15,14,27,1.60
2020,03,15,14,28,1.60
2020,03,15,14,29,9.60
2020,03,15,14,30,11.30
2020,03,15,14,32,1.60
2020,03,15,14,35,1.60
2020,03,15,14,39,3.20
2020,03,15,14,40,16.10
2020,03,15,14,41,6.40
2020,03,15,14,45,3.20
2020,03,15,14,46,1.60
2020,03,15,14,53,3.20
2020,03,15,14,54,6.40
2020,03,15,14,55,1.60
2020,03,15,14,56,1.60
2020,03,15,14,57,4.80
2020,03,15,14,59,1.60
2020,03,15,15,01,8.10
2020,03,15,15,03,4.80
2020,03,15,15,06,1.60
2020,03,15,15,10,3.20
2020,03,15,15,12,1.60
2020,03,15,15,19,1.60
2020,03,15,15,21,1.60
2020,03,15,15,23,1.60
2020,03,15,15,24,1.60
2020,03,15,15,25,3.20
2020,03,15,15,29,1.60
2020,03,15,15,30,6.40
2020,03,15,15,31,6.40
2020,03,15,15,34,11.30
2020,03,15,15,35,4.80
2020,03,15,15,36,1.60
2020,03,15,15,42,8.10
2020,03,15,15,43,1.60
2020,03,15,15,45,1.60
2020,03,15,15,53,6.40
2020,03,15,15,54,16.10
2020,03,15,15,55,1.60
2020,03,15,15,56,14.50
2020,03,15,15,58,1.60
2020,03,15,15,59,3.20
2020,03,15,16,04,11.30
2020,03,15,16,08,1.60
2020,03,15,16,11,14.50
2020,03,15,16,12,1.60
2020,03,15,16,17,1.60
2020,03,15,16,18,1.60
2020,03,15,16,20,1.60
2020,03,15,16,28,6.40
2020,03,15,16,32,1.60
2020,03,15,16,38,4.80
2020,03,15,16,42,20.90
2020,03,15,16,43,17.70
2020,03,15,16,51,1.60
2020,03,15,16,53,1.60
2020,03,15,16,57,3.20
2020,03,15,16,59,6.40
2020,03,15,17,00,1.60
2020,03,15,17,01,1.60
2020,03,15,17,05,1.60
2020,03,15,17,07,3.20
2020,03,15,17,09,9.60
2020,03,15,17,11,3.20
2020,03,15,17,20,9.60
2020,03,15,17,23,3.20
2020,03,15,17,40,4.80
2020,03,15,17,43,1.60
2020,03,15,17,51,1.60
2020,03,15,17,55,4.80
2020,03,15,17,56,3.20
2020,03,15,18,11,1.60
2020,03,15,18,22,1.60
